Overview Statistics Trail Chart Weather Telemetry Raw packets
 

This is the latest recevied weather packets stored in our database for station/object W0WC. If no packets are shown the sender has not sent any weather packets the latest 10 day(s).

<< 87 88 89 90 91 92 93 >>
Time Temp. Humidity Pressure Rain* Wind** Luminosity Snow
1788048933 35.56° C 31% 1014.9 hPa 0 mm - 46 W/m² -
1788048630 35.56° C 31% 1014.7 hPa 0 mm - 50 W/m² -
1788048327 35.56° C 30% 1014.8 hPa 0 mm - 55 W/m² -
1788048022 36.11° C 30% 1014.9 hPa 0 mm - 60 W/m² -
1788047719 36.11° C 30% 1015 hPa 0 mm - 76 W/m² -
1788047427 36.11° C 30% 1014.9 hPa 0 mm - 83 W/m² -
1788047115 36.11° C 30% 1015 hPa 0 mm - 92 W/m² -
1788046814 36.67° C 29% 1014.9 hPa 0 mm - 102 W/m² -
1788046513 36.67° C 29% 1014.8 hPa 0 mm - 111 W/m² -
1788046209 36.67° C 29% 1014.8 hPa 0 mm - 121 W/m² -
1788045906 36.67° C 29% 1015 hPa 0 mm - 130 W/m² -
1788045602 36.67° C 29% 1014.9 hPa 0 mm - 140 W/m² -
1788045297 37.22° C 28% 1015 hPa 0 mm - 148 W/m² -
1788044993 36.67° C 28% 1015.1 hPa 0 mm - 149 W/m² -
1788044691 37.22° C 28% 1015 hPa 0 mm - 168 W/m² -
1788044386 37.78° C 28% 1014.9 hPa 0 mm - 193 W/m² -
1788044081 37.22° C 28% 1015 hPa 0 mm - 212 W/m² -
1788043778 37.22° C 29% 1015.1 hPa 0 mm - 212 W/m² -
1788043477 36.67° C 28% 1015.2 hPa 0 mm - 240 W/m² -
1788043172 36.67° C 29% 1015 hPa 0 mm - 237 W/m² -
1788042867 37.22° C 29% 1015 hPa 0 mm - 244 W/m² -
1788042567 37.22° C 29% 1015.1 hPa 0 mm - 290 W/m² -
1788042266 37.22° C 29% 1015.1 hPa 0 mm - 315 W/m² -
1788041962 37.22° C 29% 1015.1 hPa 0 mm - 323 W/m² -
1788041657 36.67° C 30% 1015.2 hPa 0 mm - 300 W/m² -

* Rain latest hour (hover to see other rain measurements)
** Current wind speed in m/s (hover to see current wind gust speed)